Location: Ravensburg
(47.7866°N, 9.6124°E)
Time: 03:06:38
(UTC+02:00)

CAS-6 - Pass Details

Date: 18 March 2026
Orbit: 601 x 618 km, 97.8° (Epoch: 14 April)

Event Time Altitude Azimuth Distance (km) Brightness Sun altitude
Exits shadow 23:04:28 10° 324° (NW) 1,932 ? -39.4°
Drops below altitude 10° 23:04:31 10° 325° (NW) 1,948 ? -39.4°
Sets 23:07:00 0° 337° (NNW) 2,867 ? -39.6°
